Weather History for Mount Pleasant, TX

Change the Weather History Date:

Wednesday, November 27, 2013

  Actual Average (KGGG) Record (KGGG)
Temperature  
Mean Temperature 35 °F 52 °F  
Max Temperature 44 °F 63 °F 87 °F (1965)
Min Temperature 26 °F 41 °F 21 °F (1916)
Degree Days  
Heating Degree Days 30 13  
Month to date heating degree days 239  
Since 1 July heating degree days 328  
Cooling Degree Days 0 0  
Month to date cooling degree days 22  
Year to date cooling degree days 2417  
Moisture  
Dew Point 22 °F    
Average Humidity 63    
Maximum Humidity 99    
Minimum Humidity 34    
Precipitation  
Precipitation 0.00 in 0.15 in 2.69 in (1968)
Month to date precipitation 3.99  
Year to date precipitation 42.56  
Snow  
Snow 0.00 in - - ()
Month to date snowfall  
Since 1 July snowfall  
Since 1 September snowfall  
Snow Depth -    
Sea Level Pressure  
Sea Level Pressure 30.39 in    
Wind  
Wind Speed 8 mph (NW)    
Max Wind Speed 16 mph    
Max Gust Speed 21 mph    
Visibility 10 miles    
Events      
T = Trace of Precipitation, MM = Missing Value Source: NWS Daily Summary

Daily Weather History Graph

Daily Weather History Graph

Search for Another Location

Airport:

Trip Planner

Search our weather history database for the weather conditions in past years. The results will help you decide how hot, cold, wet, or windy it might be!

Date:

Astronomy

Nov. 27, 2013 Rise Set
Actual Time 7:01 AM CST 5:13 PM CST
Civil Twilight 6:34 AM CST 5:40 PM CST
Nautical Twilight 6:04 AM CST 6:10 PM CST
Astronomical Twilight 5:34 AM CST 6:40 PM CST
Moon 1:21 AM CST (11/27) 1:35 PM CST (11/27)
Length of Visible Light 11h 05m
Length of Day
10h 11m
Waning Crescent, 31% of the Moon is Illuminated
Nov 27
Waning Crescent
Dec 2
New
Dec 9
First Quarter
Dec 17
Full
Dec 25
Last Quarter

Hourly Weather History & Observations

Time (CST) Temp. Windchill Dew Point Humidity Pressure Visibility Wind Dir Wind Speed Gust Speed Precip Events Conditions
12:15 AM 35.6 °F 26.2 °F 24.6 °F 64% 30.33 in 10.0 mi NNW 15.0 mph 18.4 mph N/A   Clear
12:35 AM 35.4 °F 25.6 °F 24.1 °F 63% 30.33 in 10.0 mi NNW 16.1 mph 20.7 mph N/A   Clear
12:55 AM 34.7 °F 26.9 °F 23.9 °F 65% 30.33 in 10.0 mi NNW 10.4 mph - N/A   Clear
1:15 AM 34.7 °F 27.5 °F 23.9 °F 65% 30.33 in 10.0 mi NNW 9.2 mph - N/A   Clear
1:35 AM 34.3 °F 27.0 °F 23.7 °F 65% 30.34 in 10.0 mi NW 9.2 mph - N/A   Clear
1:55 AM 33.8 °F 26.4 °F 23.9 °F 67% 30.34 in 10.0 mi NNW 9.2 mph - N/A   Clear
2:15 AM 34.0 °F 25.0 °F 23.5 °F 66% 30.35 in 10.0 mi NNW 12.7 mph - N/A   Clear
2:35 AM 34.0 °F 26.0 °F 23.2 °F 65% 30.35 in 10.0 mi NNW 10.4 mph - N/A   Clear
2:55 AM 33.8 °F 26.4 °F 23.7 °F 67% 30.36 in 10.0 mi NNW 9.2 mph - N/A   Clear
3:15 AM 33.1 °F 27.7 °F 23.9 °F 69% 30.36 in 10.0 mi NW 5.8 mph - N/A   Clear
3:35 AM 32.0 °F 25.6 °F 23.9 °F 72% 30.36 in 10.0 mi WNW 6.9 mph - N/A   Clear
3:55 AM 32.0 °F 24.8 °F 24.4 °F 74% 30.36 in 10.0 mi WNW 8.1 mph - N/A   Clear
4:15 AM 30.2 °F 24.3 °F 24.4 °F 79% 30.36 in 10.0 mi WNW 5.8 mph - N/A   Clear
4:35 AM 30.2 °F 24.3 °F 24.6 °F 80% 30.36 in 10.0 mi WNW 5.8 mph - N/A   Clear
4:55 AM 30.0 °F 25.2 °F 23.9 °F 78% 30.37 in 10.0 mi WNW 4.6 mph - N/A   Clear
5:15 AM 29.7 °F 24.7 °F 23.7 °F 79% 30.37 in 10.0 mi WNW 4.6 mph - N/A   Clear
5:35 AM 30.0 °F 23.2 °F 22.8 °F 75% 30.38 in 10.0 mi NW 6.9 mph - N/A   Clear
5:55 AM 29.5 °F 23.4 °F 21.9 °F 73% 30.39 in 10.0 mi WNW 5.8 mph - N/A   Clear
6:15 AM 29.8 °F 23.9 °F 20.3 °F 68% 30.39 in 10.0 mi NW 5.8 mph - N/A   Clear
6:35 AM 29.8 °F 23.0 °F 19.4 °F 65% 30.40 in 10.0 mi NW 6.9 mph - N/A   Clear
6:55 AM 30.0 °F 22.4 °F 18.7 °F 63% 30.41 in 10.0 mi NNW 8.1 mph - N/A   Clear
7:15 AM 29.3 °F 21.5 °F 19.2 °F 66% 30.42 in 10.0 mi NW 8.1 mph - N/A   Clear
7:35 AM 30.0 °F 23.2 °F 19.2 °F 64% 30.43 in 10.0 mi NW 6.9 mph - N/A   Clear
7:55 AM 30.6 °F 23.1 °F 19.4 °F 63% 30.44 in 10.0 mi NW 8.1 mph - N/A   Clear
8:15 AM 31.6 °F 23.1 °F 19.8 °F 62% 30.44 in 10.0 mi NNW 10.4 mph - N/A   Clear
8:35 AM 32.0 °F 23.0 °F 19.6 °F 60% 30.45 in 10.0 mi NNW 11.5 mph - N/A   Clear
8:55 AM 32.9 °F 25.3 °F 19.6 °F 58% 30.45 in 10.0 mi NNW 9.2 mph 16.1 mph N/A   Clear
9:15 AM 33.4 °F 24.3 °F 19.2 °F 56% 30.45 in 10.0 mi NW 12.7 mph - N/A   Clear
9:35 AM 34.0 °F 26.0 °F 18.5 °F 53% 30.46 in 10.0 mi North 10.4 mph - N/A   Clear
9:55 AM 34.7 °F 27.5 °F 19.2 °F 53% 30.47 in 10.0 mi NNW 9.2 mph - N/A   Clear
10:15 AM 35.4 °F 28.4 °F 18.9 °F 51% 30.47 in 10.0 mi NNW 9.2 mph 17.3 mph N/A   Clear
10:35 AM 36.3 °F 28.4 °F 18.5 °F 48% 30.46 in 10.0 mi NNW 11.5 mph - N/A   Clear
10:55 AM 37.2 °F 30.0 °F 18.5 °F 47% 30.45 in 10.0 mi NNW 10.4 mph - N/A   Clear
11:15 AM 37.9 °F 32.1 °F 18.7 °F 46% 30.45 in 10.0 mi NNW 8.1 mph - N/A   Clear
11:35 AM 38.3 °F - 17.4 °F 43% 30.44 in 10.0 mi Calm Calm - N/A   Clear
11:55 AM 39.4 °F 36.1 °F 17.8 °F 42% 30.43 in 10.0 mi North 4.6 mph 16.1 mph N/A   Clear
12:15 PM 40.5 °F 37.3 °F 18.1 °F 41% 30.42 in 10.0 mi NNW 4.6 mph - N/A   Clear
12:35 PM 41.5 °F 37.1 °F 19.0 °F 41% 30.41 in 10.0 mi North 6.9 mph - N/A   Clear
12:55 PM 41.0 °F 35.2 °F 18.1 °F 40% 30.40 in 10.0 mi NNW 9.2 mph - N/A   Clear
1:15 PM 41.9 °F 37.5 °F 18.1 °F 38% 30.39 in 10.0 mi North 6.9 mph - N/A   Clear
1:35 PM 42.4 °F - 17.6 °F 37% 30.38 in 10.0 mi Calm Calm - N/A   Clear
1:55 PM 42.8 °F 41.1 °F 18.0 °F 37% 30.37 in 10.0 mi WNW 3.5 mph - N/A   Clear
2:15 PM 43.3 °F 41.7 °F 17.2 °F 35% 30.37 in 10.0 mi NW 3.5 mph - N/A   Clear
2:35 PM 43.9 °F 41.3 °F 17.6 °F 35% 30.37 in 10.0 mi West 4.6 mph - N/A   Clear
2:55 PM 44.4 °F 41.2 °F 17.6 °F 34% 30.37 in 10.0 mi West 5.8 mph - N/A   Clear
3:15 PM 44.6 °F 40.7 °F 19.2 °F 36% 30.37 in 10.0 mi NW 6.9 mph - N/A   Clear
3:35 PM 44.6 °F 42.2 °F 20.3 °F 38% 30.37 in 10.0 mi WNW 4.6 mph - N/A   Clear
3:55 PM 44.1 °F 40.1 °F 18.9 °F 37% 30.37 in 10.0 mi NW 6.9 mph - N/A   Clear
4:15 PM 43.9 °F 41.3 °F 19.2 °F 37% 30.36 in 10.0 mi WNW 4.6 mph - N/A   Clear
4:35 PM 43.5 °F 40.9 °F 19.0 °F 38% 30.36 in 10.0 mi WNW 4.6 mph - N/A   Clear
4:55 PM 41.9 °F 40.0 °F 21.4 °F 44% 30.36 in 10.0 mi West 3.5 mph - N/A   Clear
5:15 PM 41.0 °F 39.0 °F 20.8 °F 45% 30.36 in 10.0 mi West 3.5 mph - N/A   Clear
5:35 PM 39.4 °F 37.2 °F 22.6 °F 51% 30.37 in 10.0 mi West 3.5 mph - N/A   Clear
5:55 PM 39.4 °F 37.2 °F 21.4 °F 49% 30.37 in 10.0 mi West 3.5 mph - N/A   Clear
6:15 PM 38.5 °F 35.0 °F 21.9 °F 51% 30.38 in 10.0 mi West 4.6 mph - N/A   Clear
6:35 PM 37.6 °F - 22.3 °F 54% 30.39 in 10.0 mi Calm Calm - N/A   Clear
6:55 PM 33.1 °F - 25.9 °F 75% 30.39 in 10.0 mi Calm Calm - N/A   Clear
7:15 PM 33.3 °F - 26.4 °F 76% 30.39 in 10.0 mi Calm Calm - N/A   Clear
7:35 PM 33.1 °F - 25.7 °F 74% 30.40 in 10.0 mi Calm Calm - N/A   Clear
7:55 PM 31.6 °F - 27.1 °F 83% 30.40 in 10.0 mi Calm Calm - N/A   Clear
8:15 PM 32.0 °F - 26.8 °F 81% 30.41 in 10.0 mi Calm Calm - N/A   Clear
8:35 PM 30.0 °F - 26.6 °F 87% 30.41 in 10.0 mi Calm Calm - N/A   Clear
8:55 PM 30.0 °F - 28.0 °F 92% 30.41 in 10.0 mi Calm Calm - N/A   Clear
9:15 PM 29.1 °F - 27.3 °F 93% 30.41 in 10.0 mi Calm Calm - N/A   Clear
9:35 PM 28.8 °F - 28.0 °F 97% 30.41 in 10.0 mi Calm Calm - N/A   Clear
9:55 PM 28.8 °F - 27.7 °F 96% 30.41 in 10.0 mi Calm Calm - N/A   Clear
10:15 PM 29.3 °F - 28.2 °F 96% 30.42 in 10.0 mi Calm Calm - N/A   Clear
10:35 PM 27.9 °F - 27.1 °F 97% 30.42 in 10.0 mi Calm Calm - N/A   Clear
10:55 PM 27.5 °F - 27.0 °F 98% 30.42 in 10.0 mi Calm Calm - N/A   Clear
11:15 PM 27.3 °F - 26.6 °F 97% 30.43 in 10.0 mi Calm Calm - N/A   Clear
11:35 PM 26.1 °F 21.9 °F 25.7 °F 99% 30.41 in 10.0 mi East 3.5 mph - N/A   Clear
11:55 PM 27.0 °F - 26.6 °F 99% 30.41 in 10.0 mi Calm Calm - N/A   Clear